Address 0x72d175173afae45a6191f3c068174dffd3b10870 6

Overview

Balance:
1.144866939235804455 GLMR

GLMR Value:
$0.51 (@ $0.45/GLMR)

Token:
Txn Hash Method
Block
From
To
Value [Txn Fee]
0x1dbae2919febde671255a0f6fcb63a1fc424c608957cc5b88d36a78a603e59c4Transfer18887722022-09-17 18:35:0010 days 18 hrs ago0x72d175173afae45a6191f3c068174dffd3b10870OUT0xa2ed24d9f652808a4583d25867d5048960bddf8d159 GLMR0.0021315
0xe0e8c696fa5a99ce0c27ce2e52438c1cd6250297d7e3f70738eb08a481544c41Deposit18887412022-09-17 18:28:3610 days 18 hrs ago0x72d175173afae45a6191f3c068174dffd3b10870OUT Beamswap: Sharefarm0 GLMR0.0077384615
0xf5c03c40e88182c0989531e674e8f7413b2e7239d866422ff14ec76703f6d857Enter With Permi...18887222022-09-17 18:24:4810 days 19 hrs ago0x72d175173afae45a6191f3c068174dffd3b10870OUT Beamswap: SHARE Token0 GLMR0.0081497395
0x98ee2a324e7fd219723fd0453685250fb4e00bbb73234b207c91cdcea96134fbSwap Exact ETH F...18887192022-09-17 18:24:1210 days 19 hrs ago0x72d175173afae45a6191f3c068174dffd3b10870OUT Beamswap: Router 0223 GLMR0.010440696
0x72da20990fa6164497d4cdb9091988730d4401e0e7449cdb1c8b181458ef6d1dWithdraw18887132022-09-17 18:23:0010 days 19 hrs ago0x72d175173afae45a6191f3c068174dffd3b10870OUT Moonbeam: WGLMR Token0 GLMR0.0026321995
0x6645a11d1bcb374a20cb78e4b2667dddcfaaf8b5e940623cc1245e5eccdf4d28Withdraw18887052022-09-17 18:21:2410 days 19 hrs ago0x72d175173afae45a6191f3c068174dffd3b10870OUT Beamswap: Beamchef0 GLMR0.0175888335
0xb5575f6946fd87ccae77f399d2b5337464af575bcecaa210a61d3feaead802d2Deposit18603962022-09-13 17:41:0614 days 19 hrs ago0x72d175173afae45a6191f3c068174dffd3b10870OUT Beamswap: Beamchef0 GLMR0.0225895355
0xac62ab4d80f6928904a268e47390c88fbef1cc67507de4a249d4997539adedc6Deposit18603922022-09-13 17:40:1814 days 19 hrs ago0x72d175173afae45a6191f3c068174dffd3b10870OUT Beamswap: Sharefarm0 GLMR0.0077384615
0xe9ed3bf3b1d1a2ae0b6962c6b730b771fcad40ab28161568ea0b691c78bf50c0Enter With Permi...18603822022-09-13 17:38:1814 days 19 hrs ago0x72d175173afae45a6191f3c068174dffd3b10870OUT Beamswap: SHARE Token0 GLMR0.00815045
0x75bba9fba9e29087460014375c803a2ecdfe17fd6239b33bcbae93c430144ed2Deposit18603812022-09-13 17:38:0614 days 19 hrs ago0x72d175173afae45a6191f3c068174dffd3b10870OUT Moonbeam: WGLMR Token190 GLMR0.004571357
0x720d384861ba8cf81f1d399ee4339d0d3618dc22236fbce6d9a11b97c779f779Swap Exact ETH F...18603772022-09-13 17:37:1814 days 19 hrs ago0x72d175173afae45a6191f3c068174dffd3b10870OUT Beamswap: Router 025 GLMR0.012055561
0xad15ff21cbf8fb88894a446d35af2296d25cfe8212242962dff278cf5392a968Transfer18603722022-09-13 17:36:1814 days 19 hrs ago0x4704d15d858e5a83a9716489d48aeda79475c127 IN 0x72d175173afae45a6191f3c068174dffd3b10870193.6372 GLMR0.0042
0xc8f1766342ed56fc0774afc0d6b1477009c68b25b9359f92e7835d2aa5a0b23dDeposit18602872022-09-13 17:18:3014 days 20 hrs ago0x72d175173afae45a6191f3c068174dffd3b10870OUT Beamswap: Sharefarm0 GLMR0.008458401
0xd648d9f795ab2f250b552da5637840ceeb80b38fe2bda35d218d60bc1ca37e68Deposit18602852022-09-13 17:18:0614 days 20 hrs ago0x72d175173afae45a6191f3c068174dffd3b10870OUT Beamswap: Sharefarm0 GLMR0.008924489
0x43f7244f8bce3236d8ab717c903dbebb31a762cf6186f4a12c1818edb166e623Transfer16794182022-08-18 16:18:0640 days 21 hrs ago0x72d175173afae45a6191f3c068174dffd3b10870OUT0xa2ed24d9f652808a4583d25867d5048960bddf8d245 GLMR0.0021315
0xf6c519ff722565189493aba96c1603c3437fd8993b85e61108d68265f747a669Enter With Permi...16794092022-08-18 16:16:0040 days 21 hrs ago0x72d175173afae45a6191f3c068174dffd3b10870OUT Beamswap: SHARE Token0 GLMR0.008148826
0xc2a645ec849fceb466f41d8e9c00266bc36c8b123f09065a4e580fb8d041dceeWithdraw16794012022-08-18 16:14:2440 days 21 hrs ago0x72d175173afae45a6191f3c068174dffd3b10870OUT Moonbeam: WGLMR Token0 GLMR0.0026321995
0x16b48b7345561345ae18b298376562de255fc9ce4bcd38f1d40c95002f8dd21dLeave16793952022-08-18 16:13:1240 days 21 hrs ago0x72d175173afae45a6191f3c068174dffd3b10870OUT Beamswap: SHARE Token0 GLMR0.003594521
0x842274451488af3c2427fde49adc0907b4b6033cf262b5b6d9f297d867dcc1ccWithdraw16793892022-08-18 16:12:0040 days 21 hrs ago0x72d175173afae45a6191f3c068174dffd3b10870OUT Beamswap: Beamchef0 GLMR0.0181460685
0xba95343da44cb4dcd78dec991893503320918b707f6c85136e4c49b9c9f2c560Enter With Permi...16316342022-08-11 18:51:4847 days 18 hrs ago0x72d175173afae45a6191f3c068174dffd3b10870OUT Beamswap: SHARE Token0 GLMR0.006533555
0xa89c65d8c3e97daf9cc40610755caae24b817133e4bd3298e5271b2dd697324aDeposit16316292022-08-11 18:50:4847 days 18 hrs ago0x72d175173afae45a6191f3c068174dffd3b10870OUT Beamswap: Beamchef0 GLMR0.02221226
0xf06d3046f49d5906c73bce8dfc455d0b97c680aa16124c0435d0d17cac32aa49Deposit16316242022-08-11 18:49:4247 days 18 hrs ago0x72d175173afae45a6191f3c068174dffd3b10870OUT Moonbeam: WGLMR Token53 GLMR0.004571357
0xa16c4d8271c2c8618aa931fa53c5c8942493b99072e19da5f74d76f9bc2cbdceTransfer16297332022-08-11 12:19:1248 days 1 hr ago0x4704d15d858e5a83a9716489d48aeda79475c127 IN 0x72d175173afae45a6191f3c068174dffd3b1087053.1044 GLMR0.0021
0x1250dc47c42a9d19250296fafd5c2581ff21fe14bf30906898e5a20d6fde2983Enter With Permi...16176542022-08-09 18:35:3049 days 18 hrs ago0x72d175173afae45a6191f3c068174dffd3b10870OUT Beamswap: SHARE Token0 GLMR0.00815045
0xe4a0ff1594ef1e4890be29fe9db4d4d89d4a8eb00f81d0c22310e4effd18ca06Deposit16176422022-08-09 18:32:4849 days 18 hrs ago0x72d175173afae45a6191f3c068174dffd3b10870OUT Beamswap: Beamchef0 GLMR0.023285927
[ Download CSV Export 
Latest 9 internal transactions
Parent Txn Hash Block From To Value
0x72da20990fa6164497d4cdb9091988730d4401e0e7449cdb1c8b181458ef6d1d18887132022-09-17 18:23:0010 days 19 hrs ago Moonbeam: WGLMR Token0x72d175173afae45a6191f3c068174dffd3b10870182.4 GLMR
0xc2a645ec849fceb466f41d8e9c00266bc36c8b123f09065a4e580fb8d041dcee16794012022-08-18 16:14:2440 days 21 hrs ago Moonbeam: WGLMR Token0x72d175173afae45a6191f3c068174dffd3b10870244.8 GLMR
0x98a84e7d5a04fc72a83375f7c3d5d7ecd9e12f4b4a95e97eb4263dec9332f75f7343892022-04-02 13:23:24179 days 2 mins ago StellaSwap: Router v20x72d175173afae45a6191f3c068174dffd3b108700.384238243045861228 GLMR
0x2307ba64ac4d206a2bd6470f30a60f7ec8fc7dc2afa2c4e628a1e38fd09a9a327343092022-04-02 13:07:06179 days 18 mins ago Beamswap: Router 020x72d175173afae45a6191f3c068174dffd3b1087024.797137822502722284 GLMR
0x1a2d6dbc006a1bb4ce629741c1656174a83ff104972290193de1d8a86c0df4827343012022-04-02 13:05:24179 days 20 mins ago Moonbeam: WGLMR Token0x72d175173afae45a6191f3c068174dffd3b10870148.606535446762165027 GLMR
0x2a5d4fc37166498949efba5df5a47b1c8881cad907f108c8382fd3e0dc3d49f82284022022-01-19 15:08:54251 days 22 hrs ago Moonbeam: WGLMR Token0x72d175173afae45a6191f3c068174dffd3b108702.947537302370761228 GLMR
0xeaca78925b977574a282de39aa10a34ff8a38218c2fc897091036de64d4f5dac2283732022-01-19 15:02:48251 days 22 hrs ago Beamswap: Router 020x72d175173afae45a6191f3c068174dffd3b1087033.729370428800679193 GLMR
0x676fe7e5d9299b332dc78c7f20ff8d5a09049bbbc16064eba1072c76afa548a42276672022-01-19 12:36:00252 days 49 mins ago Beamswap: Router 020x72d175173afae45a6191f3c068174dffd3b108700.18646778616147397 GLMR
0x3431a0affb7b6b2df32a883553e6d6499ebabe91d3283e72e06fbd05e0d3b15a2276572022-01-19 12:33:54252 days 51 mins ago Moonbeam: WGLMR Token0x72d175173afae45a6191f3c068174dffd3b1087040 GLMR
[ Download CSV Export 
Loading

Contract Name:
0

Compiler Version
0

Optimization Enabled:
0

Other Settings:
-NA-
Block Transaction Gas Used Reward
Age Block Fee Address BC Fee Address Voting Power Jailed Incoming
Block Uncle Number Difficulty Gas Used Reward
Loading
Make sure to use the "Vote Down" button for any spammy posts, and the "Vote Up" for interesting conversations.